Location: Newark
(13.8117°N, 3.6025°W)
Time: 14:17:08
(UTC+00:00)

Courier 1B - Pass Details

Date: 20 August 2019
Orbit: 962 x 1209 km, 28.3° (Epoch: 19 September)

Event Time Altitude Azimuth Distance (km) Brightness Sun altitude
Rises 19:00:13 0° 280° (W) 3,730 13.1 -7.1°
Reaches altitude 10° 19:03:24 10° 292° (WNW) 2,746 11.6 -7.8°
Maximum altitude 19:08:50 27° 348° (NNW) 1,780 9.2 -9.1°
Drops below altitude 10° 19:14:11 10° 44° (NE) 2,684 9.5 -10.4°
Sets 19:17:16 0° 57° (ENE) 3,631 10.1 -11.1°
